TimeCST,TemperatureF,Dew PointF,Humidity,Sea Level PressureIn,VisibilityMPH,Wind Direction,Wind SpeedMPH,Gust SpeedMPH,PrecipitationIn,Events,Conditions,WindDirDegrees,DateUTC
12:56 AM,37.0,25.0,62,29.88,10.0,SE,17.3,28.8,N/A,,Overcast,130,2012-02-20 06:56:00
1:56 AM,37.0,26.1,65,29.87,10.0,SE,18.4,24.2,N/A,,Overcast,130,2012-02-20 07:56:00
2:56 AM,36.0,26.1,67,29.85,10.0,SE,15.0,-,N/A,,Overcast,130,2012-02-20 08:56:00
3:56 AM,36.0,26.1,67,29.84,10.0,SE,18.4,25.3,N/A,,Overcast,140,2012-02-20 09:56:00
4:37 AM,35.6,26.6,70,29.78,10.0,ESE,16.1,-,N/A,,Overcast,120,2012-02-20 10:37:00
4:56 AM,35.1,26.1,70,29.82,10.0,ESE,17.3,23.0,N/A,,Overcast,120,2012-02-20 10:56:00
5:44 AM,33.8,26.6,75,29.76,2.0,SE,16.1,23.0,0.00,Snow,Light Snow,130,2012-02-20 11:44:00
5:56 AM,33.1,28.0,82,29.80,2.5,SE,13.8,23.0,0.00,Snow,Light Snow,140,2012-02-20 11:56:00
6:16 AM,33.8,28.4,81,29.75,6.0,SE,13.8,-,0.03,Snow,Light Snow,130,2012-02-20 12:16:00
6:56 AM,33.1,30.0,89,29.77,6.0,SE,15.0,21.9,0.05,Rain,Light Rain,130,2012-02-20 12:56:00
8:12 AM,33.8,30.2,87,29.71,4.0,ESE,17.3,-,0.01,Rain,Rain,120,2012-02-20 14:12:00
8:56 AM,34.0,30.0,85,29.73,6.0,SE,16.1,24.2,0.03,Rain,Light Rain,130,2012-02-20 14:56:00
10:56 AM,34.0,30.9,89,29.70,7.0,ESE,15.0,-,N/A,,Overcast,120,2012-02-20 16:56:00
11:56 AM,36.0,33.1,89,29.68,6.0,SE,17.3,23.0,N/A,,Overcast,130,2012-02-20 17:56:00
12:23 PM,35.6,33.8,93,29.63,2.0,SE,15.0,-,N/A,,Overcast,140,2012-02-20 18:23:00
12:46 PM,37.4,33.8,87,29.62,1.8,SE,13.8,-,N/A,,Overcast,140,2012-02-20 18:46:00
12:54 PM,37.4,33.8,87,29.61,2.0,SE,15.0,-,N/A,,Overcast,140,2012-02-20 18:54:00
12:56 PM,37.0,35.1,93,29.65,2.5,SE,16.1,-,N/A,,Overcast,140,2012-02-20 18:56:00
1:18 PM,37.4,35.6,93,29.60,1.8,SE,13.8,-,N/A,,Overcast,140,2012-02-20 19:18:00
1:56 PM,37.0,35.1,93,29.62,1.5,SE,11.5,-,0.00,,Overcast,130,2012-02-20 19:56:00
2:27 PM,37.4,35.6,93,29.58,2.0,SE,12.7,-,0.01,Rain,Light Rain,140,2012-02-20 20:27:00
2:56 PM,37.9,36.0,93,29.61,1.8,SE,12.7,-,0.01,,Overcast,130,2012-02-20 20:56:00
3:56 PM,37.9,37.0,97,29.59,1.0,SE,11.5,-,N/A,,Overcast,140,2012-02-20 21:56:00
4:19 PM,37.4,37.4,100,29.56,0.8,SE,10.4,-,N/A,,Overcast,130,2012-02-20 22:19:00
4:41 PM,39.2,37.4,93,29.55,1.0,SE,11.5,-,N/A,,Overcast,140,2012-02-20 22:41:00
4:56 PM,39.0,37.0,93,29.59,1.0,SE,11.5,-,N/A,,Overcast,140,2012-02-20 22:56:00
5:31 PM,39.2,37.4,93,29.55,0.8,SE,9.2,-,N/A,,Overcast,140,2012-02-20 23:31:00
5:45 PM,39.2,37.4,93,29.56,1.0,SE,9.2,-,0.00,Rain,Light Rain,140,2012-02-20 23:45:00
5:56 PM,39.0,37.9,96,29.60,1.2,SSE,9.2,-,0.00,,Overcast,150,2012-02-20 23:56:00
6:56 PM,39.0,37.9,96,29.63,2.0,West,5.8,-,0.15,Rain,Rain,280,2012-02-21 00:56:00
7:00 PM,39.2,37.4,93,29.59,3.0,WNW,5.8,-,0.01,Rain,Rain,290,2012-02-21 01:00:00
7:07 PM,37.4,37.4,100,29.60,3.0,WNW,5.8,-,0.01,Rain,Light Rain,300,2012-02-21 01:07:00
7:37 PM,37.4,35.6,93,29.60,3.0,NW,13.8,-,0.02,,Overcast,320,2012-02-21 01:37:00
7:44 PM,37.4,35.6,93,29.61,2.5,NW,15.0,21.9,0.02,Rain,Light Rain,310,2012-02-21 01:44:00
7:53 PM,35.6,33.8,93,29.62,4.0,NW,18.4,27.6,0.02,Rain,Light Rain,320,2012-02-21 01:53:00
7:56 PM,35.1,33.1,92,29.66,5.0,NW,17.3,27.6,0.02,Rain,Light Rain,320,2012-02-21 01:56:00
8:56 PM,34.0,30.9,89,29.67,10.0,NW,16.1,25.3,0.00,,Overcast,320,2012-02-21 02:56:00
9:56 PM,34.0,30.9,89,29.71,10.0,NW,17.3,-,N/A,,Overcast,320,2012-02-21 03:56:00
10:21 PM,33.8,30.2,87,29.68,10.0,NW,13.8,-,N/A,,Overcast,320,2012-02-21 04:21:00
10:56 PM,34.0,30.0,85,29.72,10.0,NW,15.0,-,N/A,,Overcast,320,2012-02-21 04:56:00
11:32 PM,33.8,30.2,87,29.69,10.0,WNW,11.5,-,N/A,,Overcast,300,2012-02-21 05:32:00
11:56 PM,34.0,30.9,89,29.73,10.0,WNW,11.5,-,N/A,,Overcast,300,2012-02-21 05:56:00